{"data":{"norad_id":63048,"epoch":"2026-09-21T16:46:42.908736Z","epoch_age_seconds":61565,"freshness":"FRESH","line1":"1 63048U 25034V   26264.69910774  .00011478  00000+0  35029-3 0  9990","line2":"2 63048  53.1604  64.3452 0001325  86.4318 273.6836 15.34401131 89147","mean_motion":15.34401131,"eccentricity":0.0001325,"inclination_deg":53.1604,"raan_deg":64.3452,"arg_perigee_deg":86.4318,"mean_anomaly_deg":273.6836,"bstar":0.00035029,"rev_number":8914,"period_min":93.847688906585,"perigee_km":461.7934677524,"apogee_km":463.60628952524,"semimajor_km":6840.8368786388,"source":"CELESTRAK","updated_at":"2026-09-22T09:00:49.748051Z"}}